Volver al catálogo

NIMBUS 2 DEB

ActivoLEO
NORAD 27406·DEBRIS·🇺🇸 United States

Lanzado May 15, 1966 desde Vandenberg Space Force Base

Loading…

Próximos Pases (próximas 24 horas)

TLE

ObsoletoSource: Space-Track

Época: Sep 8, 2026, 02:12 UTC

1 27406U 66040AL  26251.09203892  .00002750  00000-0  31837-2 0  9992
2 27406 100.2956 299.6592 0034357  11.2678  19.2477 13.69810247336703

Sigue NIMBUS 2 DEB en tiempo real con AllMySat

Download on the App Store